TITAN 4B R/B

Last updated on Tue Jul 01 2025 00:02:14 GMT+0000 (Coordinated Universal Time)

1 26474U 00047B 25181.57946557 .00001651 00000+0 11553-3 0 9999 2 26474 67.9890 28.0865 0046257 319.0667 40.7010 15.07278411354896
UTC large
Height (km)
Speed (km/s)
/
Latitude / Longitude
Inclination (degrees)
Orbital Period (minutes)
Azimuth
Elevation
Range (km)
Doppler Factor

Next 0 passes for location: London (51.5072 / 0.1276)

Sorry there are no passes over London.